SM7GXQ Weather Reports


time (UTC)temp
C
wind
direction
speed
KPH
gust
KPH
rain 1hr
cm
rain 24hr
cm
rain mn
cm
humidity
%
barometer
mb
20260906181504 17 271 3.2 14.5 0.00 0.03 0.03 75 1017.6
20260906174504 17 265 3.2 11.3 0.00 0.08 0.03 77 1017.6
20260906170004 18 282 4.8 12.9 0.00 0.20 0.03 73 1017.1
20260906164504 19 261 4.8 12.9 0.00 0.20 0.03 73 1016.7
20260906160004 20 287 3.2 14.5 0.00 0.20 0.03 71 1016.7
20260906154503 20 275 3.2 8.0 0.00 0.20 0.03 69 1016.6
20260906153005 20 285 4.8 11.3 0.00 0.20 0.03 68 1016.4
20260906151504 21 288 4.8 9.7 0.00 0.20 0.03 65 1016.4
20260906143004 21 279 4.8 8.0 0.00 0.20 0.03 63 1016.6
20260906133004 20 280 1.6 8.0 0.00 0.20 0.03 68 1016.4
20260906123005 20 288 4.8 14.5 0.00 0.20 0.03 70 1016.2
20260906120005 20 298 1.6 8.0 0.00 0.20 0.03 71 1016.2
20260906114504 20 279 1.6 11.3 0.00 0.20 0.03 71 1016.1
20260906111505 19 280 8.0 12.9 0.00 0.20 0.03 70 1016.1
20260906104504 18 294 4.8 12.9 0.00 0.23 0.03 74 1015.9
20260906093004 17 246 0.0 9.7 0.00 0.28 0.03 80 1015.2
20260906091503 17 269 4.8 11.3 0.00 0.28 0.03 78 1015.2
20260906083005 16 279 4.8 14.5 0.00 0.28 0.03 82 1015.2
20260906081504 15 270 4.8 12.9 0.00 0.28 0.03 84 1014.8
20260906074504 15 266 4.8 9.7 0.00 0.28 0.03 85 1014.8
20260906073005 15 279 3.2 8.0 0.00 0.28 0.03 85 1014.4
20260906053004 12 277 4.8 11.3 0.00 0.28 0.03 91 1012.0
20260906051504 12 287 6.4 12.9 0.00 0.28 0.03 91 1012.0
20260906050004 12 287 6.4 12.9 0.00 0.28 0.03 91 1012.0
20260906044504 12 289 6.4 9.7 0.00 0.28 0.03 91 1012.0
20260906043004 12 286 3.2 9.7 0.00 0.28 0.03 92 1012.0
20260906034504 12 310 4.8 14.5 0.00 0.28 0.03 92 1011.1
20260906033006 12 300 4.8 14.5 0.00 0.28 0.03 92 1010.9
20260906024504 12 306 4.8 16.1 0.03 0.28 0.03 91 1010.2
20260906023005 12 334 4.8 14.5 0.03 0.28 0.03 91 1009.1
20260906021504 12 318 4.8 11.3 0.03 0.28 0.03 91 1009.1
20260906013005 12 300 6.4 14.5 0.00 0.25 0.00 91 1009.1
20260906001504 12 315 4.8 12.9 0.00 0.28 0.00 91 1007.8
20260905234504 13 320 6.4 12.9 0.00 0.28 0.00 90 1006.5
20260905221504 13 284 9.7 19.3 0.00 0.28 0.00 90 1005.3
20260905220004 13 281 8.0 12.9 0.00 0.28 0.00 90 1005.3
20260905214504 13 260 4.8 12.9 0.00 0.28 0.28 90 1005.3
20260905210004 13 223 6.4 16.1 0.00 0.28 0.28 88 1005.0
20260905204504 14 254 4.8 12.9 0.00 0.28 0.28 88 1004.9
20260905200004 14 219 3.2 19.3 0.00 0.28 0.28 87 1004.6